EN

Hourly Weather Luki

Today, 26 November, Thursday

Time Temperature Precipitation Wind Pressure Humidity
00:00 +4°C° 0.3 mm 3 mps 751 mmHg 95%
01:00 +4°C° 0.3 mm 3 mps 751 mmHg 96%
02:00 +5°C° 0 mm 3 mps 751 mmHg 97%
03:00 +5°C° 0.1 mm 3 mps 751 mmHg 95%
04:00 +5°C° 0.1 mm 3 mps 751 mmHg 94%
05:00 +5°C° 0.1 mm 3 mps 750 mmHg 93%
06:00 +5°C° 0 mm 3 mps 750 mmHg 93%
07:00 +5°C° 0 mm 3 mps 750 mmHg 94%
08:00 +5°C° 0 mm 4 mps 750 mmHg 95%
09:00 +5°C° 0 mm 4 mps 750 mmHg 90%
10:00 +5°C° 0 mm 4 mps 750 mmHg 85%
11:00 +4°C° 0 mm 4 mps 750 mmHg 80%
12:00 +4°C° 0 mm 4 mps 750 mmHg 77%
13:00 +4°C° 0 mm 4 mps 749 mmHg 73%
14:00 +3°C° 0 mm 4 mps 749 mmHg 70%
15:00 +3°C° 0 mm 4 mps 749 mmHg 72%
16:00 +1°C° 0 mm 4 mps 749 mmHg 75%
17:00 0°C° 0 mm 4 mps 748 mmHg 77%
18:00 0°C° 0 mm 4 mps 748 mmHg 79%
19:00 0°C° 0 mm 4 mps 748 mmHg 82%
20:00 -1°C° 0 mm 4 mps 748 mmHg 84%
21:00 -1°C° 0 mm 4 mps 747 mmHg 85%
22:00 -1°C° 0 mm 4 mps 747 mmHg 87%
23:00 -1°C° 0 mm 4 mps 746 mmHg 88%

Tomorrow, 27 November, Friday

Time Temperature Precipitation Wind Pressure Humidity
00:00 -1°C° 0 mm 4 mps 746 mmHg 88%
01:00 -1°C° 0 mm 4 mps 746 mmHg 88%
02:00 0°C° 0 mm 4 mps 746 mmHg 88%
03:00 0°C° 0 mm 4 mps 745 mmHg 88%
04:00 0°C° 0 mm 4 mps 745 mmHg 88%
05:00 -1°C° 0 mm 4 mps 744 mmHg 89%
06:00 -1°C° 0.4 mm 4 mps 744 mmHg 91%
07:00 -1°C° 0.4 mm 4 mps 744 mmHg 93%
08:00 -1°C° 0.4 mm 4 mps 744 mmHg 95%
09:00 +1°C° 0.7 mm 3 mps 743 mmHg 95%
10:00 +1°C° 0.7 mm 3 mps 743 mmHg 95%
11:00 +2°C° 0.7 mm 3 mps 743 mmHg 95%
12:00 +2°C° 0.6 mm 3 mps 743 mmHg 95%
13:00 +2°C° 0.6 mm 3 mps 743 mmHg 95%
14:00 +3°C° 0.6 mm 3 mps 743 mmHg 95%
15:00 +1°C° 0.7 mm 4 mps 743 mmHg 96%
16:00 +1°C° 0.7 mm 4 mps 743 mmHg 96%
17:00 +1°C° 0.7 mm 4 mps 743 mmHg 96%
18:00 0°C° 0.1 mm 4 mps 743 mmHg 94%
19:00 0°C° 0.1 mm 4 mps 744 mmHg 92%
20:00 0°C° 0.1 mm 4 mps 744 mmHg 90%
21:00 0°C° 0 mm 3 mps 745 mmHg 91%
22:00 0°C° 0 mm 3 mps 745 mmHg 92%
23:00 0°C° 0 mm 3 mps 745 mmHg 92%

Day after tomorrow, 28 November, Saturday

Time Temperature Precipitation Wind Pressure Humidity
00:00 0°C° 0 mm 3 mps 746 mmHg 93%
01:00 0°C° 0 mm 3 mps 746 mmHg 95%
02:00 +1°C° 0 mm 2 mps 747 mmHg 96%
03:00 +1°C° 0.1 mm 2 mps 747 mmHg 96%
04:00 +1°C° 0.1 mm 2 mps 747 mmHg 96%
05:00 +1°C° 0.1 mm 2 mps 748 mmHg 96%
06:00 +1°C° 0.4 mm 2 mps 748 mmHg 96%
07:00 +1°C° 0.4 mm 2 mps 749 mmHg 97%
08:00 +1°C° 0.4 mm 2 mps 749 mmHg 97%
09:00 +1°C° 0.3 mm 2 mps 749 mmHg 97%
10:00 +1°C° 0.3 mm 2 mps 750 mmHg 97%
11:00 +1°C° 0.3 mm 2 mps 750 mmHg 97%
12:00 +2°C° 0.1 mm 2 mps 750 mmHg 96%
13:00 +2°C° 0.1 mm 2 mps 751 mmHg 96%
14:00 +3°C° 0.1 mm 1 mps 751 mmHg 95%
15:00 +2°C° 0.2 mm 1 mps 751 mmHg 96%
16:00 +2°C° 0.2 mm 1 mps 751 mmHg 96%
17:00 +2°C° 0.2 mm 1 mps 752 mmHg 96%
18:00 +2°C° 0 mm 1 mps 752 mmHg 95%
19:00 +1°C° 0 mm 1 mps 752 mmHg 94%
20:00 -1°C° 0 mm 2 mps 753 mmHg 93%
21:00 -1°C° 0 mm 2 mps 753 mmHg 93%
22:00 -2°C° 0 mm 2 mps 753 mmHg 93%
23:00 -2°C° 0 mm 2 mps 754 mmHg 92%

29 November, Sunday

Time Temperature Precipitation Wind Pressure Humidity
00:00 -2°C° 0 mm 2 mps 754 mmHg 92%
01:00 -2°C° 0 mm 2 mps 754 mmHg 92%
02:00 -2°C° 0 mm 2 mps 754 mmHg 91%
03:00 -2°C° 0 mm 2 mps 754 mmHg 91%
04:00 -2°C° 0 mm 2 mps 754 mmHg 91%
05:00 -2°C° 0 mm 2 mps 754 mmHg 91%
06:00 -1°C° 0 mm 3 mps 754 mmHg 91%
07:00 -1°C° 0 mm 3 mps 754 mmHg 90%
08:00 -1°C° 0 mm 3 mps 754 mmHg 90%
09:00 -2°C° 0 mm 4 mps 754 mmHg 89%
10:00 -2°C° 0 mm 4 mps 754 mmHg 87%
11:00 -2°C° 0 mm 5 mps 753 mmHg 85%
12:00 -2°C° 0.2 mm 5 mps 753 mmHg 88%
13:00 -2°C° 0.2 mm 6 mps 752 mmHg 91%
14:00 -2°C° 0.2 mm 6 mps 751 mmHg 94%
15:00 -2°C° 1.2 mm 6 mps 751 mmHg 95%
16:00 -1°C° 1.2 mm 6 mps 750 mmHg 96%
17:00 +1°C° 1.2 mm 6 mps 750 mmHg 97%
18:00 +1°C° 0.8 mm 6 mps 750 mmHg 96%
19:00 +1°C° 0.8 mm 6 mps 750 mmHg 96%
20:00 +1°C° 0.8 mm 6 mps 749 mmHg 96%
21:00 +1°C° 0.4 mm 5 mps 749 mmHg 96%
22:00 +1°C° 0.4 mm 4 mps 749 mmHg 96%
23:00 +1°C° 0.4 mm 4 mps 749 mmHg 96%

30 November, Monday

Time Temperature Precipitation Wind Pressure Humidity
00:00 0°C° 0.3 mm 4 mps 749 mmHg 96%
01:00 0°C° 0.3 mm 4 mps 750 mmHg 96%
02:00 -1°C° 0.3 mm 4 mps 750 mmHg 95%
03:00 -1°C° 0.1 mm 4 mps 750 mmHg 94%
04:00 -1°C° 0.1 mm 4 mps 750 mmHg 92%
05:00 -2°C° 0.1 mm 4 mps 750 mmHg 90%
06:00 -2°C° 0 mm 5 mps 751 mmHg 88%
07:00 -2°C° 0 mm 5 mps 751 mmHg 86%
08:00 -2°C° 0 mm 5 mps 752 mmHg 84%
09:00 -3°C° 0 mm 6 mps 752 mmHg 83%
10:00 -3°C° 0 mm 6 mps 753 mmHg 83%
11:00 -3°C° 0 mm 6 mps 753 mmHg 82%
12:00 -3°C° 0 mm 6 mps 754 mmHg 83%
13:00 -3°C° 0 mm 6 mps 754 mmHg 85%
14:00 -3°C° 0 mm 6 mps 754 mmHg 86%
15:00 -3°C° 0 mm 6 mps 755 mmHg 86%
16:00 -2°C° 0 mm 5 mps 755 mmHg 86%
17:00 -2°C° 0 mm 5 mps 756 mmHg 85%
18:00 -2°C° 0 mm 5 mps 756 mmHg 86%
19:00 -2°C° 0 mm 4 mps 757 mmHg 86%
20:00 -2°C° 0 mm 4 mps 757 mmHg 86%
21:00 -2°C° 0 mm 4 mps 758 mmHg 86%
22:00 -2°C° 0 mm 4 mps 758 mmHg 86%
23:00 -1°C° 0 mm 3 mps 759 mmHg 86%

1 December, Tuesday

Time Temperature Precipitation Wind Pressure Humidity
00:00 -1°C° 0 mm 3 mps 759 mmHg 87%
01:00 -1°C° 0 mm 3 mps 759 mmHg 89%
02:00 -2°C° 0 mm 3 mps 759 mmHg 90%
03:00 -2°C° 0 mm 3 mps 759 mmHg 91%
04:00 -2°C° 0 mm 3 mps 760 mmHg 92%
05:00 -4°C° 0 mm 3 mps 760 mmHg 92%
06:00 -3°C° 0 mm 2 mps 760 mmHg 92%
07:00 -3°C° 0 mm 2 mps 760 mmHg 92%
08:00 -3°C° 0 mm 2 mps 760 mmHg 91%
09:00 -2°C° 0 mm 3 mps 760 mmHg 86%
10:00 -2°C° 0 mm 3 mps 760 mmHg 82%
11:00 -1°C° 0 mm 3 mps 760 mmHg 77%
12:00 -1°C° 0 mm 3 mps 760 mmHg 77%
13:00 -1°C° 0 mm 3 mps 760 mmHg 76%
14:00 -1°C° 0 mm 3 mps 760 mmHg 76%
15:00 -1°C° 0 mm 3 mps 760 mmHg 79%
16:00 -2°C° 0 mm 3 mps 760 mmHg 83%
17:00 -4°C° 0 mm 3 mps 760 mmHg 86%
18:00 -4°C° 0 mm 3 mps 760 mmHg 86%
19:00 -4°C° 0 mm 3 mps 760 mmHg 86%
20:00 -4°C° 0 mm 3 mps 760 mmHg 86%
21:00 -4°C° 0 mm 3 mps 760 mmHg 85%
22:00 -4°C° 0 mm 3 mps 760 mmHg 85%
23:00 -4°C° 0 mm 3 mps 760 mmHg 84%
Show more